Flag for United Kingdom

Past Weather in Worcester, England, United Kingdom — Yesterday and Last 2 Weeks

Now
59 °F

Passing clouds.


Feels Like: 57 °F
Forecast: 68 / 60 °F
Wind: 12 mph from Southwest

Location: Birmingham / Airport

Current Time: Jul 3, 2020 at 11:29:30 pm

Latest Report: Jul 3, 2020 at 10:50 pm


Visibility: N/A

Pressure: 29.83 "Hg

Humidity: 88%

Dew Point: 55 °F

Location of WorcesterLocation

Past Weather in Worcester — Graph

°F

Worcester Temperature Yesterday

Maximum temperature yesterday: 66 °F (at 12:20 pm)
Minimum temperature yesterday: 52 °F (at 4:50 am)
Average temperature yesterday: 60 °F

High & Low Weather Summary for the Past Weeks

 TemperatureHumidityPressure
High86 °F (Jun 25, 4:50 pm)100% (Jun 18, 11:20 pm)30.24 "Hg (Jun 18, 11:20 pm)
Low46 °F (Jun 22, 4:50 am)35% (Jun 25, 4:50 pm)29.53 "Hg (Jun 27, 12:20 pm)
Average62 °F72%29.89 "Hg
* Reported Jun 18 10:20 pm — Jul 3 10:20 pm, Worcester. Weather by CustomWeather, © 2020

Note: Actual official high and low records may vary slightly from our data, if they occured in-between our weather recording intervals... More about our weather records

Worcester Weather History for the Previous 24 Hours

Scroll right to see more
 ConditionsComfort  
Time TempWeatherWind HumidityBarometerVisibility
10:20 pm
Fri, Jul 3
59 °FPassing clouds.12 mph88%29.83 "HgN/A
9:50 pm59 °FPassing clouds.9 mph88%29.83 "HgN/A
9:20 pm59 °FMostly cloudy.9 mph88%29.83 "HgN/A
8:50 pm59 °FPartly sunny.9 mph88%29.83 "HgN/A
8:20 pm59 °FMostly cloudy.13 mph88%29.86 "HgN/A
7:50 pm59 °FPartly sunny.13 mph88%29.86 "HgN/A
7:20 pm59 °FPartly sunny.12 mph88%29.86 "HgN/A
6:50 pm59 °FPartly sunny.12 mph88%29.86 "HgN/A
6:20 pm59 °FPartly sunny.10 mph88%29.86 "HgN/A
5:50 pm59 °FBroken clouds.12 mph88%29.89 "HgN/A
5:20 pm59 °FLight rain. Scattered clouds.10 mph88%29.89 "HgN/A
4:50 pm59 °FLight rain. Scattered clouds.13 mph82%29.89 "Hg5 mi
4:20 pm59 °FRain. Mostly cloudy.12 mph82%29.89 "Hg5 mi
3:50 pm61 °FPartly sunny.15 mph77%29.89 "HgN/A
3:20 pm61 °FPartly sunny.10 mph72%29.92 "HgN/A
2:50 pm61 °FPartly sunny.12 mph72%29.92 "HgN/A
1:50 pm61 °FScattered clouds.13 mph77%29.92 "HgN/A
1:20 pm59 °FPartly sunny.12 mph82%29.92 "HgN/A
12:50 pm59 °FLight rain. Overcast.12 mph77%29.95 "Hg5 mi
12:20 pm61 °FLight rain. Mostly cloudy.13 mph72%29.95 "HgN/A
11:50 am63 °FMostly cloudy.14 mph64%29.92 "HgN/A
11:20 am63 °FMostly cloudy.8 mph64%29.92 "HgN/A
10:50 am63 °FScattered clouds.10 mph64%29.92 "HgN/A
10:20 am61 °FScattered clouds.9 mph72%29.92 "HgN/A
9:50 am57 °FScattered clouds.8 mph82%29.92 "HgN/A
9:20 am57 °FScattered clouds.9 mph82%29.92 "HgN/A
8:50 am55 °FPassing clouds.8 mph88%29.92 "HgN/A
8:20 am55 °FLight rain. Clear.7 mph88%29.95 "HgN/A
7:50 am55 °FLight rain. Passing clouds.8 mph88%29.95 "HgN/A
7:20 am55 °FPassing clouds.8 mph82%29.95 "HgN/A
6:50 am55 °FPassing clouds.8 mph82%29.95 "HgN/A
6:20 am54 °FPassing clouds.7 mph88%29.95 "HgN/A
5:50 am54 °FPassing clouds.8 mph82%29.95 "HgN/A
5:20 am52 °FPassing clouds.6 mph88%29.95 "HgN/A
4:50 am52 °FPassing clouds.6 mph88%29.95 "HgN/A
4:20 am54 °FPassing clouds.5 mph82%29.98 "HgN/A
3:50 am54 °FPassing clouds.6 mph82%29.98 "HgN/A
3:20 am54 °FPassing clouds.6 mph82%29.98 "HgN/A
2:50 am54 °FPassing clouds.5 mph82%29.98 "HgN/A
2:20 am54 °FPassing clouds.5 mph77%29.98 "HgN/A
1:50 am54 °FClear.5 mph77%29.98 "Hg10 mi
1:20 am55 °FPassing clouds.5 mph72%29.98 "HgN/A
12:50 am55 °FPassing clouds.5 mph72%29.98 "HgN/A
12:20 am55 °FPassing clouds.5 mph72%29.98 "HgN/A
11:50 pm
Thu, Jul 2
55 °FPassing clouds.5 mph72%29.98 "HgN/A
11:20 pm57 °FClear.5 mph67%29.98 "Hg10 mi
Weather by CustomWeather, © 2020

See weather overview